{"data":{"norad_id":41904,"epoch":"2026-09-20T04:35:38.726016Z","epoch_age_seconds":52546,"freshness":"FRESH","line1":"1 41904U 16082B   26263.19142044 -.00000215  00000+0  00000+0 0  9996","line2":"2 41904   0.0231 107.7350 0002390  66.9732 169.3143  1.00271512 35729","mean_motion":1.00271512,"eccentricity":0.000239,"inclination_deg":0.0231,"raan_deg":107.735,"arg_perigee_deg":66.9732,"mean_anomaly_deg":169.3143,"bstar":0,"rev_number":3572,"period_min":1436.100813958,"perigee_km":35776.594103945,"apogee_km":35796.748882404,"semimajor_km":42164.808493175,"source":"CELESTRAK","updated_at":"2026-09-20T09:00:35.250426Z"}}